www.pogodaiklimat.ru
ПОГОДА на Сейшелах
Время
(UTC), дата
03 18.05
06 18.05
09 18.05
12 18.05
15 18.05
18 18.05
21 18.05
00 19.05
03 19.05
06 19.05
09 19.05
12 19.05
15 19.05
18 19.05
21 19.05
00 20.05
03 20.05
06 20.05
09 20.05
12 20.05
15 20.05
18 20.05
21 20.05
00 21.05
03 21.05
06 21.05
09 21.05
12 21.05
15 21.05
18 21.05
21 21.05
00 22.05
03 22.05
06 22.05
09 22.05
12 22.05
15 22.05
18 22.05
21 22.05
00 23.05
03 23.05
06 23.05
09 23.05
12 23.05
15 23.05
18 23.05
21 23.05
00 24.05
03 24.05
06 24.05
09 24.05
12 24.05
15 24.05
18 24.05
21 24.05
00 25.05
Ветер
(напр.,м/с)
Видим. Явления Облачность Т
(С)
Тd
(С)
f
(%)
Тe
(С)
Тes
(С)
Комфортность P
(гПа)
Po
(гПа)
Тmin
(С)
Tmax
(С)
R
(мм)
R24
(мм)
S
(см)
нст 4
{9}
40 км слаб. ливневой дождь 8/5 300 м
[Cu Sc Ac lent Ci fib]
+27.5 +25.0 86 +39 +40 очень
душно
1012.0 1011.7
ЮВ 4
{13}
30 км в посл. час ливневой дождь 8/4 360 м
[Cb cap Ac As Ci sp]
+29.7 +25.5 78 +44 +47 опасность
перегрева
1013.1 1012.8 +27.0 1
В 7
{14}
30 км осадки на расстоянии {ливн. осадки} 9/9 360 м
[Cb cap]
+29.7 +25.8 80 +44 +45 опасность
перегрева
1011.2 1010.9
ЮВ 4
{14}
30 км {ливн. осадки} 8/8 630 м
[Cb cap Ci]
+30.9 +25.8 74 +46 +47 опасность
перегрева
1009.8 1009.5
ЮВ 6
{13}
20 км 5/5 660 м
[Cu Sc Ci]
+29.6 +25.0 76 +42 +42 опасность
перегрева
1011.0 1010.7
ЮВ 6
{14}
30 км 6/5 660 м
[Cu Sc Ac trans Ci sp]
+29.0 +23.3 71 +39 +39 очень
душно
1012.2 1011.9 +31.6 2
ЮВ 5
{11}
40 км 5/3 750 м
[Cu Sc Ci sp]
+28.8 +23.6 74 +39 +39 очень
душно
1010.9 1010.6
ЮВ 3
{11}
30 км 6/5 700 м
[Cu med, cong Ci sp]
+28.7 +24.6 79 +41 +41 опасность
перегрева
1009.9 1009.6
ЮВ 3
{6}
30 км 5/3 600 м
[Cu Sc Ac trans Ci sp]
+28.7 +25.4 82 +42 +42 опасность
перегрева
1010.8 1010.5
Ю 4
{11}
40 км в посл. час ливневой дождь 8/4 570 м
[Cb cap Ac lent Ci ing]
+28.1 +24.6 81 +40 +43 очень
душно
1012.7 1012.4 +27.3 2
ЮВ 7
{11}
30 км 6/4 700 м
[Cu Sc Ac trans Ci]
+31.5 +24.8 68 +45 +47 опасность
перегрева
1011.3 1011.0
ЮВ 6
{10}
30 км 8/5 750 м
[Cu Sc Ac trans Ci]
+30.5 +24.3 70 +43 +43 опасность
перегрева
1009.8 1009.5
Ю 4
{12}
20 км 6/3 700 м
[Cu Sc Ac trans Ci]
+29.0 +23.3 71 +39 +39 очень
душно
1011.1 1010.8
ЮВ 4
{9}
30 км 8/4 600 м
[Cu Sc Ac trans Ci sp]
+29.0 +23.8 74 +40 +40 очень
душно
1012.1 1011.8 +32.0 0.2
В 3
{9}
30 км 4/4 660 м
[Cu hum Ac lent]
+28.6 +24.1 77 +40 +40 очень
душно
1011.0 1010.7
нст 3
{10}
30 км 3/3 720 м
[Cu hum]
+28.4 +23.6 75 +39 +39 очень
душно
1010.2 1009.9
ЮВ 4
{12}
30 км 9/4 600 м
[Cu Sc Ac trans Ci sp]
+28.7 +23.9 75 +40 +40 очень
душно
1011.6 1011.3
нст 6
{17}
40 км 8/5 570 м
[Cu med, cong Ci]
+30.0 +24.1 71 +42 +44 опасность
перегрева
1013.1 1012.8 +28.3 0.2
нст 5
{16}
30 км {ливн. осадки} 9/4 570 м
[Cu med, cong Ci sp]
+30.8 +24.4 69 +43 +48 опасность
перегрева
1011.9 1011.6
нст 3
{11}
20 км {ливн. осадки} 9/3 570 м
[Cu med, cong Ci sp]
+29.7 +24.2 72 +41 +44 опасность
перегрева
1010.7 1010.4
ЮВ 5
{11}
20 км {ливн. осадки} 9/3 570 м
[Cu med, cong Ci sp]
+29.1 +23.9 74 +40 +40 очень
душно
1011.9 1011.6
ЮЗ 10
{15}
20 км {ливн. осадки} 6/3 630 м
[Cu Sc Ci]
+29.4 +24.2 74 +41 +41 опасность
перегрева
1011.8 1011.5 +31.7 0.0
Ю 4
{17}
20 км 6/4 700 м
[Sc Ci ing]
+29.2 +24.6 76 +41 +41 опасность
перегрева
1011.5 1011.2
нст 4
{13}
20 км {ливн. осадки} 5/4 660 м
[Sc Ci ing]
+28.8 +24.2 76 +40 +40 очень
душно
1009.9 1009.6
нст 3
{11}
10 км слаб. ливневой дождь 9/6 540 м
[Cb cap Ac und Ci fib]
+28.1 +24.8 82 +40 +40 очень
душно
1011.4 1011.1
ЮВ 5
{13}
40 км в посл. час ливневой дождь 8/5 600 м
[Cb cap Ci ing]
+29.7 +24.9 75 +42 +45 опасность
перегрева
1012.2 1011.9 +27.7 0.8
ЮВ 5
{14}
40 км в посл. час ливневой дождь 9/6 540 м
[Cb cap Ac lent Ci ing]
+28.7 +25.2 81 +42 +44 опасность
перегрева
1011.1 1010.8
нст 4
{11}
30 км 9/5 660 м
[Cu med, cong Ac lent Ci sp]
+28.8 +24.7 79 +41 +42 опасность
перегрева
1010.1 1009.8
ЮВ 5
{10}
50 км 8/5 660 м
[Cu med, cong Ac lent Ci sp]
+28.5 +24.0 77 +40 +40 очень
душно
1011.3 1011.0
нст 4
{11}
20 км слаб. ливневой дождь 9/4 570 м
[Cu Sc Ac trans Ci sp]
+28.0 +24.3 80 +39 +39 очень
душно
1012.9 1012.6 +31.1 4
нст 4
{11}
30 км {ливн. осадки} 9/3 600 м
[Cu med, cong Ac trans Ci sp]
+28.3 +25.0 82 +41 +41 опасность
перегрева
1011.3 1011.0
Ю 4
{12}
10 км {ливн. осадки} 4/3 630 м
[Cu med, cong Ci sp]
+28.2 +24.9 82 +40 +40 очень
душно
1009.8 1009.5
Ю 4
{8}
40 км 8/4 570 м
[Cu Sc Ac trans Ci fib]
+28.1 +25.2 84 +41 +41 опасность
перегрева
1011.4 1011.1
ЮВ 6
{10}
50 км 8/5 600 м
[Cu Sc Ci sp]
+30.8 +26.0 76 +46 +48 опасность
перегрева
1012.5 1012.2 +26.5 14
ЮВ 5
{10}
50 км 6/3 660 м
[Cu Sc Ci sp]
+30.8 +26.2 77 +47 +53 опасность
перегрева
1010.8 1010.5
ЮВ 4
{8}
40 км в посл. час ливневой дождь 8/5 660 м
[Cu med, cong Ci sp]
+29.7 +26.2 82 +45 +47 опасность
перегрева
1009.8 1009.5
ЮВ 4
{6}
40 км в посл. час ливневой дождь 8/6 600 м
[Cu med, cong Ci sp]
+29.1 +25.6 81 +43 +43 опасность
перегрева
1011.4 1011.1
ЮВ 3
{10}
40 км {ливн. осадки} 9/6 540 м
[Cb cap Ac lent Ci ing]
+27.4 +25.7 90 +40 +40 очень
душно
1013.0 1012.7 +31.4 0.3
ЮВ 2
{5}
10 км 5/3 660 м
[Cu hum Ci fib]
+28.1 +25.8 87 +42 +42 опасность
перегрева
1012.0 1011.7
ЮВ 3
{6}
10 км 4/3 660 м
[Cu hum Ci fib]
+28.1 +24.2 79 +39 +39 очень
душно
1010.2 1009.9
ЮВ 3
{6}
40 км 6/4 660 м
[Cu hum Ac lent Ci sp]
+28.3 +25.6 85 +42 +42 опасность
перегрева
1011.5 1011.2
ЮВ 5
{8}
30 км 8/6 540 м
[Cb cap Ac lent Ci fib]
+30.3 +25.7 76 +45 +46 опасность
перегрева
1013.4 1013.1 +27.4 3
ЮВ 5
{9}
30 км {ливн. осадки} 4/4 600 м
[Cu med, cong Ac lent Ci fib]
+31.3 +26.0 74 +47 +52 опасность
перегрева
1011.6 1011.3
ЮВ 5
{9}
30 км 6/4 660 м
[Cu hum Ac lent Ci sp]
+30.9 +25.2 72 +45 +46 опасность
перегрева
1010.5 1010.2
ЮВ 4
{7}
30 км 9/3 630 м
[Cu hum Ac und Ci sp]
+29.2 +25.3 80 +43 +43 опасность
перегрева
1011.5 1011.2
ЮВ 4
{8}
30 км 9/6 630 м
[Cu med, cong Ci sp]
+29.2 +25.5 80 +43 +43 опасность
перегрева
1013.1 1012.8 +32.0 0.0
ЮВ 4
{7}
30 км 8/5 700 м
[Cu Sc Ac trans Ci]
+28.9 +24.8 79 +41 +41 опасность
перегрева
1011.7 1011.4
ЮВ 3
{7}
30 км 5/4 630 м
[Cu Sc Ac trans Ci sp]
+28.7 +25.2 81 +42 +42 опасность
перегрева
1010.2 1009.9
ЮВ 5
{9}
50 км 8/6 630 м
[Cu med, cong Ci sp]
+29.0 +25.7 82 +43 +43 опасность
перегрева
1010.9 1010.6
ЮВ 5
{12}
50 км в посл. час ливневой дождь 8/5 700 м
[Cu med, cong Ac trans Ci fib]
+30.4 +26.2 78 +46 +48 опасность
перегрева
1013.1 1012.8 +28.0 0.0
В 4
{7}
50 км 6/4 660 м
[Cu med, cong Ac trans Ci fib]
+31.2 +25.4 71 +45 +51 опасность
перегрева
1011.1 1010.8
ЮВ 5
{9}
50 км 8/4 720 м
[Cu med, cong Ci sp]
+30.3 +25.7 76 +45 +46 опасность
перегрева
1010.0 1009.7
ЮВ 4
{9}
20 км 9/4 500 м
[Cb cap Ac trans Ci sp]
+28.7 +25.2 81 +42 +42 опасность
перегрева
1011.2 1010.9
ЮВ 6
{10}
40 км 8/4 540 м
[Cu med, cong Ac trans Ci ing]
+28.4 +25.9 86 +42 +42 опасность
перегрева
1013.0 1012.7 +31.7 0.2
Ю 2
{8}
8000 м ливневой дождь 10/10 270 м
[Cb cap]
+26.4 +25.2 93 +38 +38 очень
душно
1012.8 1012.5
ЮВ 2
{9}
20 км {ливн. осадки} 3/3 660 м
[Cu med, cong]
+27.9 +24.8 83 +40 +40 очень
душно
1010.7 1010.4
Местоположение метеостанции Сейшелы (Сейшелы): широта -4.67 долгота 55.52 высота над уровнем моря 3 м.
В архиве по умолчанию представлена погода на Сейшелах за последнюю неделю. Архивные данные за месяц целиком и за предыдущие месяцы, начиная с января 2011 года, Вы можете получить, выбрав интересующий диапазон дат из раскрывающегося списка и нажав кнопку "Найти!".
*Определитесь, кто Вы:
Внимание! Время в таблицах - всемирное. Для получения местного времени необходимо прибавить поправку, которая равна 4 ч.
Смотрите также архив погоды в соседних городах и на ближайших метеорологических станциях:
Партнеры нашего сайта:      
Пояснения к столбцам:
  • Ветер - указаны скорость ветра в м/с - средняя за 10 мин, порывы в срок и между сроками (в фигурных скобках) и направление, откуда дует ветер: С - северный,
  • СВ - северо-восточный, В - восточный, ЮВ - юго-восточный, Ю - южный, ЮЗ - юго-западный, З - западный, СЗ - северо-западный.
  • Видимость - горизонтальная дальность видимости в метрах или километрах. При видимости от 1 до 10 км при отсутствии осадков обычно наблюдается дымка, при ухудшении видимости до 1 км и менее - туман. В сухую погоду видимость может ухудшаться дымом, пылью или мглою.
  • Явления - указаны атмосферные явления, наблюдавшиеся в срок или в последний час перед сроком; фигурными скобками обозначены явления, наблюдавшиеся между сроками (за 1-3 часа до срока); квадратными скобками обозначены град или гололедные отложения с указанием их диаметра в мм.
  • Облачность - указаны через наклонную черту общая и нижняя облачность в баллах и высота нижней границы облаков в метрах; квадратными скобками обозначены формы облаков: Ci - перистые, Cs - перисто-слоистые, Cc - перисто-кучевые, Ac - высококучевые, As - высокослоистые, Sc - слоисто-кучевые, Ns - слоисто-дождевые, Cu - кучевые, Cb - кучево-дождевые. Подробнее классификацию облаков см. в Атласе облаков (PDF).
  • T - Температура воздуха - температура, измеренная на высоте 2 м над землей.
  • Td - Температура точки росы - температура, при понижении до которой содержащийся в воздухе водяной пар достигнет насыщения.
  • f - Относительная влажность воздуха - влажноcть воздуха, измеренная на высоте 2 м над землей.
  • Te - Эффективная температура - температура, которую ощущает одетый по сезону человек в тени. Характеристика душности погоды. При расчете учитывается влияние влажности воздуха и скорости ветра на теплоощущения человека.
  • Tes - Эффективная температура на солнце - температура, которую ощущает человек, с поправкой на солнечный нагрев. Характеристика знойности погоды. Зависит от высоты солнца над горизонтом, облачности и скорости ветра. Ночью, в пасмурную погоду, а также при ветре 12 м/с и более поправка равна нулю.
  • P - Атмосферное давление - приведенное к уровню моря атмосферное давление.
  • Po - Атмосферное давление - измеренное на уровне метеостанции атмосферное давление.
  • Tmin - Минимальная температура - минимум температуры воздуха на высоте 2 м над землей.
  • Tmax - Максимальная температура - максимум температуры воздуха на высоте 2 м над землей.
  • R - Количество осадков - Количество выпавших осадков за период времени, мм. При наведении курсора мыши на число - период времени, за который выпало указанное количество осадков.
  • R24 - Количество осадков - Количество выпавших осадков за 24 часа, мм.
  • S - Снежный покров - Высота снежного покрова, см. При наведении курсора мыши на число - состояние снежного покрова и степень покрытия местности в баллах.